Wind_Speed
8 7 6 6 4 4 4 5 6 7 8 10 12 14 15 17 17 18 18 18 18 18 18 17 17 16 15 13 12 12 12 12 13 14 15 17 19 21 23 24 25 25 25
8 7 6 5 4 4 5 5 6 7 8 10 12 14 15 17 18 18 18 18 18 18 18 17 16 16 14 13 12 11 10 11 11 12 13 16 17 19 21 24 25 25 25
8 8 7 6 5 5 5 5 6 7 8 10 11 13 15 17 17 17 18 19 19 18 18 17 16 15 14 13 11 10 9 9 10 10 12 14 16 18 19 22 23 24 25
9 8 7 6 5 5 6 6 6 7 8 10 11 13 15 16 17 17 18 18 18 18 18 17 16 15 13 12 11 9 8 8 9 9 10 12 14 17 17 19 21 23 24
8 8 7 7 6 6 6 6 6 7 8 9 11 13 14 16 17 17 17 18 18 19 18 17 16 15 13 12 11 8 7 6 7 8 9 10 12 14 16 18 20 21 23
8 8 8 7 7 6 6 7 7 7 8 9 11 13 14 15 16 17 17 17 18 19 18 17 16 15 14 12 10 8 6 5 5 6 8 9 11 13 15 17 18 19 21
8 8 7 7 8 7 7 7 7 8 8 9 11 12 14 15 16 16 16 17 18 18 19 17 16 15 14 12 10 8 6 5 5 5 7 8 9 11 13 16 17 18 20
7 7 8 8 8 8 8 8 8 8 9 10 11 12 13 14 15 15 16 16 17 18 18 18 16 15 14 12 10 8 6 5 4 5 5 6 8 10 11 14 15 16 18
7 8 8 8 8 8 8 8 9 9 9 10 11 12 13 14 14 15 15 16 16 17 18 18 17 15 14 12 10 9 7 5 4 4 4 5 6 8 10 12 13 14 17
7 8 8 8 8 9 9 9 9 10 10 11 11 12 12 13 14 14 15 15 16 16 16 17 17 16 14 13 11 9 7 6 4 3 4 4 5 6 8 10 12 13 14
8 9 9 10 10 10 10 10 10 11 11 11 11 12 12 13 13 14 14 15 15 15 15 16 16 15 14 13 11 9 8 7 4 3 3 3 4 6 7 10 11 12 13
9 10 10 11 11 11 11 12 11 12 12 12 12 12 12 13 13 13 14 14 14 14 15 15 15 14 14 13 11 10 8 7 5 3 3 3 3 5 7 8 10 11 13
10 11 11 12 12 13 13 13 13 13 13 13 13 13 13 13 13 14 14 14 13 13 14 14 14 14 14 13 12 10 9 8 6 5 3 3 4 4 6 7 9 11 13
11 11 12 12 13 13 14 14 14 14 14 14 14 14 14 14 14 14 14 14 13 13 13 14 14 14 13 13 12 11 9 8 7 6 5 4 4 4 5 7 8 9 11
11 12 13 13 13 14 14 15 15 15 16 15 15 15 15 15 15 15 14 14 13 13 13 13 13 13 13 12 11 10 9 9 8 7 6 5 4 4 5 6 7 9 11
13 13 14 15 15 15 15 16 16 17 17 17 17 17 16 16 16 16 15 15 14 14 14 14 13 13 13 12 11 11 10 9 8 7 7 6 5 5 5 6 7 8 9
15 15 16 16 17 17 17 17 17 18 18 18 18 18 18 18 18 17 17 16 15 15 15 14 14 13 13 12 12 11 11 10 9 8 8 7 6 7 6 7 8 9 9
17 17 18 18 18 18 19 19 19 19 19 19 19 19 19 19 19 19 18 18 17 16 16 16 15 14 14 13 13 12 11 10 10 9 8 8 7 7 7 8 9 10 10
20 19 20 21 21 21 21 21 20 20 20 20 21 21 21 21 20 20 20 19 19 18 18 17 17 16 15 14 13 13 12 11 10 10 9 9 9 9 9 9 10 11 11
23 23 23 23 24 24 24 24 23 23 23 23 23 23 23 23 23 22 22 22 21 20 20 19 18 18 17 16 15 14 13 13 12 11 11 11 10 10 10 10 11 11 12
26 27 27 27 27 27 27 27 26 26 26 26 26 26 26 25 25 25 24 24 23 23 22 22 21 20 19 18 17 16 15 15 14 13 13 12 12 12 12 12 12 13 13
29 29 30 30 30 30 30 30 30 30 29 29 28 28 28 28 28 28 27 26 26 25 24 24 23 22 22 21 20 19 18 17 16 16 15 14 14 14 14 14 14 14 15
32 32 33 33 33 33 33 33 33 33 33 32 32 31 31 30 30 30 30 29 28 28 27 26 25 25 24 23 22 21 20 20 19 18 18 17 17 16 16 16 16 17 17
36 36 36 36 36 36 37 37 37 37 36 36 36 35 34 33 33 33 33 32 31 30 30 29 28 27 26 26 25 24 23 22 22 21 20 20 19 19 18 18 18 18 18
41 41 41 41 41 41 40 41 41 40 39 39 39 39 38 37 36 35 35 35 34 33 32 32 31 30 29 28 27 26 26 25 25 24 24 23 22 21 21 21 21 21 21
45 45 45 45 45 45 45 44 44 44 43 42 41 41 40 39 38 38 37 36 36 36 35 35 34 32 31 30 30 29 29 28 27 27 26 25 25 24 24 23 23 23 23
Wind_Direction
208 214 216 221 236 266 291 309 322 333 341 346 350 351 350 348 347 345 344 343 341 338 335 333 332 329 323 314 302 290 276 267 258 249 239 233 231 226 222 221 221 221 219
211 218 221 228 247 273 291 306 321 333 340 345 349 350 350 349 348 347 346 345 343 342 340 338 335 332 328 320 311 297 282 270 258 249 240 234 229 223 221 221 220 219 218
215 224 226 234 251 273 289 303 320 331 339 344 348 349 350 350 349 349 349 348 346 345 345 343 341 337 333 328 319 307 288 272 260 251 244 237 231 227 223 218 217 217 217
219 227 229 241 255 273 287 301 316 327 336 342 346 348 350 350 349 349 351 351 349 349 348 347 347 345 341 337 330 317 296 275 261 254 248 240 233 229 224 220 217 217 216
222 230 236 245 258 271 286 299 310 320 330 337 342 346 347 349 349 349 351 352 351 351 350 349 350 349 346 341 336 328 309 285 263 252 247 239 234 229 226 224 219 217 217
223 233 244 253 261 270 283 297 306 314 324 332 338 342 345 347 349 350 350 351 352 353 352 351 352 351 349 345 340 333 320 298 271 256 248 240 235 231 227 226 222 219 218
229 241 253 261 265 270 280 292 301 310 319 327 333 338 342 346 348 350 350 350 352 354 355 355 353 353 352 349 345 337 328 307 284 267 254 244 238 232 228 226 223 220 219
241 249 259 266 270 274 280 288 296 304 312 320 328 334 339 343 346 348 349 351 352 354 356 359 357 354 354 354 350 344 332 311 289 273 260 247 239 233 229 225 223 223 219
253 255 261 268 274 278 283 290 295 299 305 313 321 327 333 338 342 345 348 350 353 355 357 1 2 359 359 357 356 353 344 328 302 283 271 255 243 233 229 225 224 224 220
261 262 267 272 278 282 286 291 293 295 299 306 314 321 328 333 337 340 344 348 351 354 357 1 4 4 3 2 359 360 358 345 323 288 276 262 243 237 234 227 225 222 221
266 266 270 274 279 283 287 291 292 293 295 300 308 315 322 327 332 335 339 343 347 351 355 358 1 3 3 2 1 360 0 355 342 309 286 277 253 242 236 232 230 226 223
273 273 274 276 279 283 286 289 291 293 293 296 302 308 314 319 324 329 333 337 341 345 350 353 356 359 1 1 359 358 357 355 345 327 294 290 271 248 238 237 234 230 226
280 280 280 281 283 285 286 287 289 290 291 294 297 301 305 310 316 321 325 330 334 338 343 348 351 354 357 358 358 357 356 354 348 340 325 302 283 259 246 242 238 234 229
286 284 285 285 285 287 287 286 286 288 289 290 293 295 297 301 307 312 316 321 327 331 335 340 345 348 350 353 355 355 354 352 349 345 332 313 291 268 250 246 242 237 234
290 289 287 287 288 287 287 288 288 287 288 288 290 292 293 295 299 304 308 312 317 322 326 329 335 340 344 345 347 349 348 346 344 341 336 321 303 279 257 247 244 241 240
292 292 290 288 288 287 286 288 289 288 288 287 288 289 291 292 294 297 301 304 307 312 316 319 324 329 333 337 339 341 339 337 333 332 329 317 303 290 275 259 250 247 244
289 290 290 289 288 287 287 287 288 287 286 285 285 286 288 289 291 292 294 297 300 303 306 309 313 318 323 325 327 329 331 329 325 323 319 310 303 292 280 265 257 254 254
287 287 287 286 287 287 286 287 288 287 286 285 284 284 285 287 288 289 290 291 293 295 298 301 304 307 311 315 317 319 321 321 319 317 314 308 301 294 285 272 263 259 259
285 285 285 285 285 285 285 285 286 286 285 285 284 284 284 285 286 286 286 287 288 289 291 293 296 298 300 303 306 309 310 312 312 312 308 303 298 293 287 279 272 268 266
283 284 284 284 284 284 284 284 284 284 284 284 283 283 283 283 283 283 283 284 285 285 286 287 289 291 292 294 295 298 300 301 301 302 302 299 295 291 287 282 278 273 270
282 282 283 283 282 282 282 282 282 282 282 282 281 281 281 281 281 281 281 281 281 282 283 283 283 284 285 286 287 289 290 291 291 292 293 293 290 288 285 281 278 275 273
282 282 281 281 282 282 281 280 280 280 281 281 280 279 278 278 278 278 278 278 278 279 279 279 279 279 280 280 281 282 283 284 284 286 286 285 285 283 281 280 279 276 275
282 281 280 280 280 280 280 279 279 278 279 279 278 278 277 277 277 276 276 276 276 276 276 276 276 276 276 276 277 277 277 278 280 281 282 281 281 280 280 278 278 279 276
282 282 281 280 279 279 279 279 279 278 277 277 277 277 276 275 275 275 274 274 273 273 274 273 273 272 272 273 273 274 274 274 275 277 278 278 279 279 278 277 276 276 276
283 283 282 280 279 278 278 278 278 278 277 276 276 275 275 274 273 272 272 271 270 271 271 271 270 271 270 270 271 271 272 272 272 273 274 275 276 277 278 277 276 276 276
283 283 282 281 280 280 278 277 277 277 277 276 275 273 273 272 272 271 270 270 269 269 269 269 269 269 269 269 269 269 270 270 270 271 272 273 274 275 275 276 276 276 277
Height
5843 5843 5844 5844 5845 5844 5844 5843 5842 5841 5839 5837 5835 5832 5829 5826 5823 5819 5816 5812 5809 5805 5801 5798 5795 5792 5789 5787 5785 5784 5784 5784 5785 5786 5788 5790 5792 5795 5799 5802 5806 5810 5814
5841 5842 5843 5843 5843 5843 5842 5842 5841 5839 5837 5835 5833 5831 5828 5825 5822 5818 5814 5810 5807 5803 5799 5796 5792 5789 5786 5784 5782 5781 5781 5781 5782 5783 5784 5786 5789 5791 5794 5798 5802 5806 5810
5840 5841 5841 5842 5842 5841 5841 5840 5839 5838 5836 5834 5832 5830 5827 5823 5820 5817 5813 5809 5805 5801 5798 5794 5790 5787 5784 5782 5780 5778 5778 5778 5779 5780 5781 5783 5785 5788 5791 5794 5797 5801 5806
5839 5840 5840 5840 5840 5840 5839 5839 5837 5836 5835 5833 5831 5828 5826 5823 5819 5816 5812 5808 5804 5800 5796 5793 5789 5786 5783 5780 5778 5776 5776 5776 5776 5777 5778 5780 5782 5785 5787 5790 5793 5797 5801
5837 5838 5839 5838 5838 5838 5838 5837 5836 5835 5833 5831 5829 5827 5825 5822 5818 5815 5811 5807 5804 5800 5795 5792 5788 5785 5782 5779 5777 5775 5774 5774 5774 5775 5776 5777 5779 5781 5784 5787 5790 5794 5797
5836 5837 5837 5837 5836 5836 5836 5835 5834 5833 5832 5830 5828 5826 5823 5820 5817 5814 5810 5807 5803 5799 5795 5791 5787 5784 5781 5778 5776 5774 5773 5773 5773 5773 5774 5775 5776 5778 5781 5784 5787 5790 5794
5835 5835 5835 5835 5835 5835 5834 5834 5833 5832 5830 5829 5827 5825 5822 5819 5816 5813 5810 5806 5803 5799 5795 5791 5787 5784 5780 5778 5775 5774 5773 5772 5772 5772 5773 5773 5775 5776 5778 5781 5784 5787 5790
5833 5833 5833 5833 5833 5833 5832 5832 5831 5830 5828 5827 5825 5823 5821 5818 5815 5812 5809 5806 5802 5798 5795 5790 5787 5783 5780 5777 5775 5773 5772 5771 5771 5771 5771 5772 5773 5774 5776 5779 5781 5784 5787
5832 5832 5832 5832 5831 5831 5830 5830 5829 5828 5826 5825 5824 5822 5819 5817 5814 5811 5808 5805 5802 5798 5794 5791 5787 5783 5780 5777 5775 5773 5772 5771 5770 5770 5771 5771 5772 5773 5774 5776 5779 5782 5784
5830 5830 5830 5829 5829 5829 5828 5827 5827 5826 5825 5823 5822 5820 5818 5816 5813 5811 5808 5805 5801 5798 5794 5791 5787 5784 5781 5778 5775 5773 5772 5770 5770 5769 5770 5770 5770 5771 5773 5775 5777 5779 5782
5828 5828 5828 5827 5827 5826 5826 5825 5824 5823 5822 5821 5820 5818 5816 5814 5812 5809 5807 5804 5801 5798 5794 5791 5788 5785 5781 5779 5776 5774 5772 5771 5769 5769 5769 5769 5769 5770 5772 5773 5775 5777 5779
5826 5825 5825 5824 5824 5824 5823 5822 5822 5821 5820 5819 5817 5816 5814 5812 5810 5808 5805 5803 5800 5797 5794 5791 5788 5785 5782 5779 5776 5774 5772 5771 5769 5769 5769 5769 5769 5769 5770 5772 5773 5775 5777
5824 5823 5823 5822 5821 5821 5820 5819 5819 5818 5817 5816 5815 5813 5812 5810 5808 5806 5804 5802 5799 5796 5794 5791 5788 5785 5782 5779 5777 5774 5772 5771 5770 5769 5768 5768 5768 5768 5769 5770 5771 5773 5775
5821 5820 5820 5819 5818 5818 5817 5816 5815 5814 5814 5813 5811 5810 5809 5808 5806 5804 5802 5800 5797 5795 5793 5790 5788 5785 5782 5780 5777 5774 5773 5771 5770 5769 5768 5767 5767 5767 5768 5769 5770 5771 5772
5818 5817 5817 5816 5815 5814 5813 5813 5812 5811 5810 5809 5808 5807 5806 5805 5803 5802 5800 5798 5796 5793 5791 5789 5787 5784 5782 5779 5777 5775 5773 5771 5770 5768 5767 5767 5766 5766 5766 5767 5768 5769 5770
5815 5814 5813 5812 5811 5811 5810 5809 5808 5807 5806 5805 5804 5803 5802 5801 5800 5799 5797 5795 5793 5791 5789 5787 5785 5783 5781 5779 5776 5774 5772 5771 5769 5768 5767 5766 5765 5765 5765 5765 5766 5767 5768
5812 5811 5810 5809 5808 5807 5806 5805 5804 5803 5802 5801 5800 5799 5798 5797 5796 5795 5793 5792 5790 5789 5787 5785 5783 5781 5779 5777 5775 5773 5771 5770 5768 5766 5765 5765 5764 5764 5763 5763 5764 5764 5765
5807 5806 5805 5804 5804 5803 5802 5801 5799 5798 5797 5796 5795 5794 5793 5793 5792 5790 5789 5788 5787 5785 5784 5782 5780 5779 5777 5775 5773 5772 5770 5768 5766 5765 5764 5763 5762 5762 5761 5761 5761 5761 5762
5802 5801 5800 5799 5798 5797 5796 5795 5794 5793 5792 5791 5790 5789 5788 5787 5786 5785 5784 5783 5782 5781 5780 5778 5777 5775 5774 5772 5771 5769 5768 5766 5765 5763 5762 5761 5760 5759 5759 5759 5758 5759 5759
5797 5796 5794 5793 5792 5791 5790 5790 5789 5787 5786 5785 5784 5783 5782 5782 5781 5780 5779 5778 5777 5776 5775 5774 5772 5771 5770 5768 5767 5766 5765 5763 5762 5761 5759 5758 5757 5757 5756 5755 5755 5755 5755
5790 5789 5788 5787 5786 5785 5784 5783 5782 5781 5780 5779 5777 5776 5775 5775 5774 5773 5772 5771 5771 5770 5769 5768 5767 5766 5765 5764 5763 5762 5761 5760 5758 5757 5756 5755 5754 5753 5753 5752 5752 5751 5751
5783 5781 5780 5779 5778 5776 5776 5775 5774 5773 5772 5771 5770 5769 5768 5767 5766 5765 5765 5764 5763 5763 5762 5761 5761 5760 5759 5758 5757 5757 5756 5755 5754 5753 5752 5751 5750 5750 5749 5748 5748 5747 5747
5774 5772 5771 5770 5768 5767 5766 5765 5764 5763 5762 5761 5761 5760 5759 5758 5757 5757 5756 5756 5755 5755 5754 5754 5753 5753 5752 5752 5751 5750 5750 5749 5748 5748 5747 5746 5745 5745 5744 5743 5743 5742 5742
5763 5762 5760 5759 5758 5756 5755 5754 5753 5752 5751 5751 5750 5749 5749 5748 5747 5747 5746 5746 5746 5746 5745 5745 5745 5745 5744 5744 5744 5743 5743 5742 5742 5741 5741 5740 5740 5739 5738 5738 5737 5736 5736
5751 5749 5748 5747 5745 5744 5743 5742 5740 5739 5739 5738 5738 5737 5737 5736 5735 5735 5735 5735 5735 5735 5736 5736 5736 5736 5736 5736 5735 5735 5735 5735 5735 5734 5734 5733 5733 5733 5732 5731 5730 5730 5729
5738 5736 5734 5733 5731 5730 5729 5728 5727 5726 5725 5725 5724 5723 5723 5723 5723 5723 5723 5723 5724 5724 5724 5725 5725 5726 5726 5726 5726 5726 5726 5726 5726 5726 5726 5726 5726 5725 5725 5724 5723 5723 5722